Location: Anumalkud?ru
(16.4847°N, 80.6636°E)
Time: 23:21:01
(UTC+00:00)

Cosmos 1842 Rocket - Pass Details

Date: 11 April 2026
Orbit: 599 x 625 km, 82.5° (Epoch: 9 May)

Event Time Altitude Azimuth Distance (km) Brightness Sun altitude
Exits shadow 23:30:19 10° 209° (SSW) 1,979 5.8 -13.6°
Reaches altitude 10° 23:30:25 10° 209° (SSW) 1,944 5.7 -13.5°
Maximum altitude 23:34:21 35° 276° (W) 966 4.1 -12.6°
Drops below altitude 10° 23:38:18 10° 343° (NNW) 1,937 6.1 -11.7°
Sets 23:40:39 0° 352° (N) 2,839 7.0 -11.2°
